Погода в Ленинградской

Россия / Краснодарский край     46°19′13″N   39°23′34″E
темп.,
°C
ветер,
м/с
пор.,
м/с
влажн.,
%
обл.,
%
осадки,
мм/ч
давл.,
гПа
погр.,
м
12 мая, ср
ср1200:00+8ю8139378 0.6 1015686
03:00+8ююв61292100 0.6 1015555
06:00+8юв51189100 0.1 1016461
09:00+9вюв5992100 0.4 1017412
12:00+14юв5668100 0.1 10161461
15:00+16ююв566599 0.2 10151338
18:00+16вюв3778100 0.0 1014355
21:00+12в378896 0.0 1014101
13 мая, чт
чт1300:00+11вюв359111 0.0 101383
03:00+10вюв33905 0.0 101340
06:00+11в34900 0.0 101372
09:00+17вюв34720 0.0 1013403
12:00+21в336393 0.0 1013684
15:00+23вюв445999 0.0 1013936
18:00+21вюв3579100 0.0 1012163
21:00+18в41087100 0.0 1012169
14 мая, пт
пт1400:00+16в412920 0.0 1011208
03:00+14вюв411890 0.0 1011169
06:00+15вюв511870 0.0 1011176
09:00+21вюв577453 0.0 1011328
12:00+26вюв46645 0.0 1011562
15:00+28вюв34605 0.0 1010856
18:00+26в36780 0.0 1010234
21:00+20в34900 0.0 101048
15 мая, сб
сб1500:00+19вюв33910 0.0 100927
03:00+18ю22930 0.0 101020
06:00+18ссз26930 0.0 1011146
09:00+22сз236513 0.0 1012331
12:00+25зсз225884 0.0 1013774
15:00+26зсз335736 0.0 10121079
18:00+24сз34735 0.0 1011161
21:00+19ссз11815 0.1 101211
16 мая, вс
вс1600:00+17с33805 0.0 101144
03:00+16св33754 0.0 101032
06:00+17св348974 0.0 101089
09:00+23всв357886 0.0 1009467
12:00+26всв56645 0.0 1007794
15:00+25в6862100 0.0 1006874
18:00+24в5107325 0.0 1004381
21:00+20всв411825 0.0 1003184